Location: ????????
(55.4000°N, 39.1167°E)
Time: 14:51:41
(UTC+00:00)

Cosmos 1633 Rocket - Pass Details

Date: 19 May 2025
Orbit: 600 x 618 km, 82.5° (Epoch: 20 June)

Event Time Altitude Azimuth Distance (km) Brightness Sun altitude
Rises 21:14:34 0° 349° (N) 2,890 8.3 -14.6°
Reaches altitude 10° 21:16:50 10° 353° (N) 1,977 7.1 -14.6°
Maximum altitude 21:21:10 62° 75° (ENE) 689 3.3 -14.6°
Enters shadow 21:23:58 21° 151° (SSE) 1,379 4.3 -14.6°
